Vancleve, KY

3:17 AM EST on December 10, 2016 (GMT -0500)
Carroll

Weather History for KJKL - February, 2012

Change the Weather History Date:

Monday, February 20, 2012

  Actual Average Record
Temperature  
Mean Temperature 30 °F 40 °F  
Max Temperature 40 °F 49 °F 73 °F (1997)
Min Temperature 20 °F 31 °F -7 °F (2015)
Degree Days  
Heating Degree Days 35 25  
Month to date heating degree days 529 544  
Since 1 July heating degree days 2680 3110  
Cooling Degree Days 0 0  
Month to date cooling degree days 0 0  
Year to date cooling degree days 0 0  
Moisture  
Dew Point 25 °F    
Average Humidity 78    
Maximum Humidity 92    
Minimum Humidity 64    
Precipitation  
Precipitation 0.00 in 0.14 in 1.07 in (1989)
Month to date precipitation 2.24 2.66  
Year to date precipitation 7.10 6.27  
Snow  
Snow 0.00 in 0.20 in 0.40 in (2006)
Month to date snowfall 5.5 5.4  
Since 1 July snowfall 9.7 18.0  
Snow Depth 3.00 in    
Sea Level Pressure  
Sea Level Pressure 30.25 in    
Wind  
Wind Speed 2 mph (ENE)    
Max Wind Speed 7 mph    
Max Gust Speed 13 mph    
Visibility 9 miles    
Events      
T = Trace of Precipitation, MM = Missing Value Source: NWS Daily Summary

Daily Weather History Graph

Daily Weather History Graph

Search for Another Location

Airport or City:

Trip Planner

Search our weather history database for the weather conditions in past years. The results will help you decide how hot, cold, wet, or windy it might be!

Date:

Astronomy

Feb. 20, 2012 Rise Set
Actual Time 7:17 AM EST 6:17 PM EST
Civil Twilight 6:50 AM EST 6:43 PM EST
Nautical Twilight 6:20 AM EST 7:14 PM EST
Astronomical Twilight 5:49 AM EST 7:44 PM EST
Moon 6:12 AM EST (2/20) 5:21 PM EST (2/20)
Length of Visible Light 11h 53m
Length of Day
11h 00m
Waning Crescent, 2% of the Moon is Illuminated
Feb 20
Waning Crescent
Feb 21
New
Feb 29
First Quarter
Mar 8
Full
Mar 14
Last Quarter

Hourly Weather History & Observations

Time (EST) Temp. Windchill Dew Point Humidity Pressure Visibility Wind Dir Wind Speed Gust Speed Precip Events Conditions
12:53 AM 28.0 °F 24.2 °F 26.1 °F 92% 30.13 in 6.0 mi North 3.5 mph - N/A   Clear
1:53 AM 28.9 °F 25.2 °F 25.0 °F 85% 30.14 in 9.0 mi NNE 3.5 mph - N/A   Clear
2:53 AM 27.0 °F 23.0 °F 24.1 °F 89% 30.15 in 9.0 mi Variable 3.5 mph - N/A   Clear
3:53 AM 25.0 °F 19.3 °F 21.9 °F 88% 30.15 in 8.0 mi NE 4.6 mph - N/A   Clear
4:53 AM 24.1 °F - 21.0 °F 88% 30.19 in 9.0 mi Calm Calm - N/A   Clear
5:53 AM 23.0 °F - 19.0 °F 85% 30.24 in 7.0 mi Calm Calm - N/A   Clear
6:25 AM 21.2 °F - 17.6 °F 86% 30.22 in 2.5 mi Calm Calm - N/A   Scattered Clouds
6:40 AM 21.2 °F - 19.4 °F 93% 30.22 in 6.0 mi Calm Calm - N/A   Partly Cloudy
6:53 AM 23.0 °F - 19.9 °F 88% 30.26 in 6.0 mi Calm Calm - N/A   Partly Cloudy
7:53 AM 21.9 °F - 19.0 °F 89% 30.30 in 7.0 mi Calm Calm - N/A   Clear
8:53 AM 26.1 °F 21.9 °F 25.0 °F 96% 30.31 in 9.0 mi NE 3.5 mph - N/A   Clear
9:53 AM 28.9 °F 25.2 °F 23.0 °F 78% 30.32 in 10.0 mi NE 3.5 mph - N/A   Clear
10:53 AM 28.9 °F 25.2 °F 24.1 °F 82% 30.34 in 10.0 mi SE 3.5 mph - N/A   Clear
11:53 AM 32.0 °F - 26.1 °F 79% 30.35 in 10.0 mi Calm Calm - N/A   Mostly Cloudy
12:53 PM 32.0 °F - 27.0 °F 82% 30.34 in 10.0 mi Calm Calm - N/A   Mostly Cloudy
1:40 PM 33.8 °F 30.8 °F 28.4 °F 81% 30.28 in 10.0 mi Variable 3.5 mph - N/A   Overcast
1:53 PM 33.1 °F - 28.0 °F 82% 30.31 in 10.0 mi Calm Calm - N/A   Mostly Cloudy
2:08 PM 33.8 °F - 28.4 °F 81% 30.28 in 10.0 mi Calm Calm - N/A   Mostly Cloudy
2:51 PM 35.6 °F - 28.4 °F 75% 30.26 in 10.0 mi Calm Calm - N/A   Scattered Clouds
2:53 PM 36.0 °F 32.1 °F 28.0 °F 73% 30.30 in 10.0 mi ESE 4.6 mph - N/A   Scattered Clouds
3:53 PM 37.9 °F - 28.9 °F 70% 30.28 in 10.0 mi Calm Calm - N/A   Clear
4:53 PM 39.0 °F - 28.9 °F 67% 30.27 in 10.0 mi Calm Calm - N/A   Clear
5:53 PM 37.9 °F - 28.9 °F 70% 30.27 in 10.0 mi Calm Calm - N/A   Clear
6:53 PM 35.1 °F 31.0 °F 27.0 °F 72% 30.25 in 10.0 mi Variable 4.6 mph - N/A   Clear
7:53 PM 32.0 °F 25.6 °F 27.0 °F 82% 30.25 in 10.0 mi East 6.9 mph - N/A   Clear
8:53 PM 30.9 °F - 27.0 °F 85% 30.22 in 10.0 mi Calm Calm - N/A   Clear
9:53 PM 30.0 °F 26.5 °F 26.1 °F 85% 30.21 in 10.0 mi Variable 3.5 mph - N/A   Clear
10:53 PM 30.0 °F 25.2 °F 27.0 °F 88% 30.19 in 10.0 mi East 4.6 mph - N/A   Clear
11:53 PM 30.0 °F - 27.0 °F 88% 30.15 in 10.0 mi Calm Calm - N/A   Clear